(518994) = 2010 JX56

Discovered at Catalina on 2010-02-17 by CSS.

Orbit

Orbit type: Main Belt

Note: WebGL enabled browser required.

epoch2022-01-21.0
epoch JD2459600.5
perihelion date2021-09-01.26742
perihelion JD2459458.76742
argument of perihelion (°)147.93624
ascending node (°)11.88329
inclination (°)27.36148
eccentricity0.1271126
perihelion distance (AU)2.7770946
Tisserand w.r.t. Jupiter3.0
ΔV w.r.t. Earth (km/sec)13.4
semimajor axis (AU)3.1815038
mean anomaly (°)24.61642
mean daily motion (°/day)0.17368210
aphelion distance (AU)3.586
period (years)5.67
P-vector [x]-0.92638108
P-vector [y]0.16613731
P-vector [z]0.33795929
Q-vector [x]-0.36450130
Q-vector [y]-0.62110461
Q-vector [z]-0.69380679
absolute magnitude15.83
phase slope0.15
uncertainty0
referenceMPO 701282
observations used202
oppositions7
arc length (days)5347
first opposition used2007
last opposition used2022
residual rms (arc-secs)0.72
perturbers coarse indicatorM-v
perturbers precise indicator003Ek
first observation date used2007-09-15.0
last observation date used2022-05-06.0
computer namePan

Observations

208 total observations over interval: 2007 09 15.23428 – 2022 05 06.304749
These data are available for download (format description).

Date (UT) J2000 RA J2000 Dec Magn Location Ref
2007 09 15.23428 23 58 47.17 -14 20 00.8 21.3 V G96 – Mt. Lemmon Survey MPS 888586
2007 09 15.25625 23 58 45.94 -14 20 01.7 21.0 V G96 – Mt. Lemmon Survey MPS 888586
2007 09 15.26138 23 58 45.66 -14 20 02.1 20.8 V G96 – Mt. Lemmon Survey MPS 888586
2007 09 15.26649 23 58 45.37 -14 20 02.1 20.7 V G96 – Mt. Lemmon Survey MPS 888586
2010 02 17.28370 10 45 44.46 +40 58 26.1 20.1 V 703 – Catalina Sky Survey MPS 888586
2010 02 17.29000 10 45 43.95 +40 58 27.9 19.3 V 703 – Catalina Sky Survey MPS 888586
2010 02 17.29635 10 45 43.52 +40 58 25.7 19.7 V 703 – Catalina Sky Survey MPS 888586
2010 02 17.30276 10 45 42.94 +40 58 26.1 19.9 V 703 – Catalina Sky Survey MPS 888586
2010 05 07.60573 10 01 18.70 +28 12 40.4   C51 – WISE MPS 326603
2010 05 07.605731 10 01 18.69 +28 12 40.2   C51 – WISE MPS 326603
2010 05 07.73804 10 01 22.35 +28 10 49.8   C51 – WISE MPS 326603
2010 05 07.870339 10 01 26.01 +28 08 58.7   C51 – WISE MPS 326603
2010 05 08.002644 10 01 29.73 +28 07 07.5   C51 – WISE MPS 326603
2010 05 08.134948 10 01 33.43 +28 05 17.2   C51 – WISE MPS 326603
2010 05 08.201163 10 01 35.33 +28 04 21.7   C51 – WISE MPS 326603
2010 05 08.26725 10 01 37.20 +28 03 26.0   C51 – WISE MPS 326603
2010 05 08.333468 10 01 39.07 +28 02 30.6   C51 – WISE MPS 326603
2010 05 08.399556 10 01 40.97 +28 01 35.3   C51 – WISE MPS 326603
2010 05 08.465772 10 01 42.86 +28 00 39.9   C51 – WISE MPS 326603
2010 05 08.598076 10 01 46.62 +27 58 49.0   C51 – WISE MPS 326603
2010 05 08.730380 10 01 50.44 +27 56 58.4   C51 – WISE MPS 326603
2010 05 08.862557 10 01 54.30 +27 55 07.3   C51 – WISE MPS 326603
2010 05 08.862684 10 01 54.27 +27 55 07.3   C51 – WISE MPS 326603
2010 05 08.994861 10 01 58.13 +27 53 16.8   C51 – WISE MPS 326603
2010 05 08.994988 10 01 58.21 +27 53 16.4   C51 – WISE MPS 326603
2013 09 03.33277 01 04 14.77 +02 44 46.7 21.3 V 691 – Steward Observatory, Kitt Peak-Spacewatch MPS 884879
2013 09 03.35041 01 04 14.10 +02 44 47.0 21.0 V 691 – Steward Observatory, Kitt Peak-Spacewatch MPS 884879
2013 09 03.36804 01 04 13.38 +02 44 48.8 21.0 V 691 – Steward Observatory, Kitt Peak-Spacewatch MPS 884879
2013 10 02.31546 00 40 23.42 +02 50 36.1 20.5 V G96 – Mt. Lemmon Survey MPS 884879
2013 10 02.32262 00 40 23.00 +02 50 36.0 20.3 V G96 – Mt. Lemmon Survey MPS 884879
2013 10 02.32979 00 40 22.58 +02 50 36.1 20.1 V G96 – Mt. Lemmon Survey MPS 884879
2013 10 02.33697 00 40 22.18 +02 50 36.1 20.2 V G96 – Mt. Lemmon Survey MPS 884879
2013 10 02.385205 00 40 19.574 +02 50 36.21 19.5 R F51 – Pan-STARRS 1, Haleakala MPS 884879
2013 10 02.400058 00 40 18.718 +02 50 36.15 20.2 R F51 – Pan-STARRS 1, Haleakala MPS 884879
2013 10 02.414929 00 40 17.856 +02 50 36.01 20.5 R F51 – Pan-STARRS 1, Haleakala MPS 884879
2013 10 02.429841 00 40 17.000 +02 50 36.14 20.4 R F51 – Pan-STARRS 1, Haleakala MPS 884879
2016 01 09.54555 12 45 00.208 +12 03 15.84 20.8 w F51 – Pan-STARRS 1, Haleakala MPS 884879
2016 01 09.55881 12 45 00.524 +12 03 12.50 20.8 w F51 – Pan-STARRS 1, Haleakala MPS 884879
2016 01 09.57208 12 45 00.853 +12 03 09.31 20.8 w F51 – Pan-STARRS 1, Haleakala MPS 884879
2016 01 09.58527 12 45 01.168 +12 03 06.19 20.9 w F51 – Pan-STARRS 1, Haleakala MPS 884879
2016 02 11.47808 12 45 25.494 +10 35 25.92 20.5 w F51 – Pan-STARRS 1, Haleakala MPS 884879
2016 02 11.48949 12 45 25.184 +10 35 24.88 20.5 w F51 – Pan-STARRS 1, Haleakala MPS 884879
2016 02 11.50086 12 45 24.873 +10 35 23.92 20.5 w F51 – Pan-STARRS 1, Haleakala MPS 884879
2016 02 11.51225 12 45 24.558 +10 35 22.86 20.5 w F51 – Pan-STARRS 1, Haleakala MPS 884879
2016 03 07.32226 12 26 40.63 +10 00 39.6 19.4 V 703 – Catalina Sky Survey MPS 888586
2016 03 07.33220 12 26 39.89 +10 00 39.6 20.9 V 703 – Catalina Sky Survey MPS 888586
2016 03 07.33717 12 26 39.63 +10 00 38.5 20.2 V 703 – Catalina Sky Survey MPS 888586
2016 03 11.71580 12 22 01.76 +09 52 37.3 19.6 R D29 – Purple Mountain Observatory, XuYi Station MPS 884879
2016 03 11.72994 12 22 00.82 +09 52 35.5 20.1 R D29 – Purple Mountain Observatory, XuYi Station MPS 884879
2016 03 11.74408 12 21 59.87 +09 52 33.9 20.3 R D29 – Purple Mountain Observatory, XuYi Station MPS 884879
2016 03 12.35498 12 21 20.01 +09 51 19.4 19.6 V 703 – Catalina Sky Survey MPS 884879
2016 03 12.36511 12 21 19.23 +09 51 18.4 19.2 V 703 – Catalina Sky Survey MPS 884879
2016 03 12.37523 12 21 18.60 +09 51 18.5   703 – Catalina Sky Survey MPS 884879
2016 03 18.21822 12 14 47.20 +09 37 50.8 19.4 V G96 – Mt. Lemmon Survey MPS 884879
2016 03 18.22406 12 14 46.81 +09 37 49.9 19.5 V G96 – Mt. Lemmon Survey MPS 884879
2016 03 18.22991 12 14 46.40 +09 37 49.3 19.4 V G96 – Mt. Lemmon Survey MPS 884879
2016 03 18.23575 12 14 45.96 +09 37 48.0 19.4 V G96 – Mt. Lemmon Survey MPS 884879
2016 03 18.34182 12 14 38.58 +09 37 32.4 19.5 V 703 – Catalina Sky Survey MPS 888586
2016 03 18.34933 12 14 37.99 +09 37 30.9 19.9 V 703 – Catalina Sky Survey MPS 888586
2016 03 18.35684 12 14 37.49 +09 37 28.8 19.9 V 703 – Catalina Sky Survey MPS 888586
2016 03 28.33064 12 03 17.92 +09 06 27.1 18.8 V 703 – Catalina Sky Survey MPS 884879
2016 03 28.36176 12 03 15.50 +09 06 19.7 20.7 V 703 – Catalina Sky Survey MPS 884879
2016 03 29.31342 12 02 12.164 +09 02 47.47 19.7 w F51 – Pan-STARRS 1, Haleakala MPS 884879
2016 03 29.32592 12 02 11.312 +09 02 44.69 19.7 w F51 – Pan-STARRS 1, Haleakala MPS 884879
2016 03 29.33851 12 02 10.453 +09 02 41.87 19.7 w F51 – Pan-STARRS 1, Haleakala MPS 884879
2016 03 29.35110 12 02 09.591 +09 02 39.04 19.7 w F51 – Pan-STARRS 1, Haleakala MPS 884879
2016 04 02.24070 11 57 54.81 +08 47 01.1 19.8 V G96 – Mt. Lemmon Survey MPS 884879
2016 04 02.24486 11 57 54.53 +08 47 00.3 19.7 V G96 – Mt. Lemmon Survey MPS 884879
2016 04 02.24902 11 57 54.26 +08 46 59.1 19.7 V G96 – Mt. Lemmon Survey MPS 884879
2016 04 02.25319 11 57 53.97 +08 46 58.0 19.7 V G96 – Mt. Lemmon Survey MPS 884879
2016 04 05.36954 11 54 37.746 +08 33 10.82 20.1 w F51 – Pan-STARRS 1, Haleakala MPS 884879
2016 04 05.38304 11 54 36.887 +08 33 07.12 20.1 w F51 – Pan-STARRS 1, Haleakala MPS 884879
2016 04 05.39481 11 54 36.138 +08 33 03.84 20.0 w F51 – Pan-STARRS 1, Haleakala MPS 884879
2016 04 05.40890 11 54 35.244 +08 32 59.95 20.1 w F51 – Pan-STARRS 1, Haleakala MPS 884879
2016 05 11.18422 11 31 57.21 +04 41 34.8 20.8 V G96 – Mt. Lemmon Survey MPS 884879
2016 05 11.18924 11 31 57.12 +04 41 32.8 20.3 V G96 – Mt. Lemmon Survey MPS 884879
2016 05 11.19426 11 31 57.08 +04 41 30.2 20.5 V G96 – Mt. Lemmon Survey MPS 884879
2016 05 11.19928 11 31 57.02 +04 41 27.9 21.0 V G96 – Mt. Lemmon Survey MPS 884879
2019 10 08.32667 01 39 58.58 +21 11 56.8 21.5 G G96 – Mt. Lemmon Survey MPS 1056867
2019 10 08.33355 01 39 58.25 +21 11 57.0 21.1 G G96 – Mt. Lemmon Survey MPS 1056867
2019 10 08.34053 01 39 57.81 +21 11 57.7 21.7 G G96 – Mt. Lemmon Survey MPS 1056867
2019 10 08.34565 01 39 57.50 +21 11 58.2 21.0 G G96 – Mt. Lemmon Survey MPS 1056867
2019 10 24.18213 01 24 00.18 +21 25 00.5 20.7 G G96 – Mt. Lemmon Survey MPS 1065037
2019 10 24.19145 01 23 59.60 +21 25 00.6 20.9 G G96 – Mt. Lemmon Survey MPS 1065037
2019 10 24.19671 01 23 59.26 +21 25 00.2 21.1 G G96 – Mt. Lemmon Survey MPS 1065037
2019 10 24.20198 01 23 58.92 +21 25 00.4 21.0 G G96 – Mt. Lemmon Survey MPS 1065037
2019 11 04.45494 01 12 59.971 +21 19 47.00 21.3 w F51 – Pan-STARRS 1, Haleakala MPS 1078411
2019 11 04.46845 01 12 59.215 +21 19 46.14 21.7 w F51 – Pan-STARRS 1, Haleakala MPS 1078411
2019 11 04.48205 01 12 58.441 +21 19 45.58 21.5 w F51 – Pan-STARRS 1, Haleakala MPS 1078411
2019 11 05.16921 01 12 21.05 +21 19 09.8 20.9 G G96 – Mt. Lemmon Survey MPS 1078411
2019 11 05.17480 01 12 20.72 +21 19 09.5 21.1 G G96 – Mt. Lemmon Survey MPS 1078411
2019 11 05.18038 01 12 20.40 +21 19 09.2 21.1 G G96 – Mt. Lemmon Survey MPS 1078411
2019 11 05.18598 01 12 20.09 +21 19 09.2 21.3 G G96 – Mt. Lemmon Survey MPS 1078411
2020 10 19.457900 08 05 45.57 +50 20 30.8 20.82 G G96 – Mt. Lemmon Survey MPS 1285267
2020 10 19.469260 08 05 46.49 +50 20 36.4 21.31 G G96 – Mt. Lemmon Survey MPS 1285267
2020 10 19.474955 08 05 46.92 +50 20 38.2 21.48 G G96 – Mt. Lemmon Survey MPS 1285267
2020 11 20.332162 08 35 31.20 +54 32 03.2 20.50 G G96 – Mt. Lemmon Survey MPS 1328238
2020 11 20.337360 08 35 31.29 +54 32 06.1   G96 – Mt. Lemmon Survey MPS 1328238
2020 11 20.342568 08 35 31.39 +54 32 09.3 20.47 G G96 – Mt. Lemmon Survey MPS 1328238
2020 11 20.347777 08 35 31.50 +54 32 11.8 20.42 G G96 – Mt. Lemmon Survey MPS 1328238
2020 11 22.54910 08 36 27.327 +54 52 32.84 20.6 w F51 – Pan-STARRS 1, Haleakala MPS 1328238
2020 11 22.56203 08 36 27.584 +54 52 40.22 20.7 w F51 – Pan-STARRS 1, Haleakala MPS 1328238
2020 11 22.57493 08 36 27.859 +54 52 47.46 20.8 w F51 – Pan-STARRS 1, Haleakala MPS 1328238
